contact:dominique.lefevre@mio.osupytheas.fr, maurice.libes@osupytheas.fr
Project:EMSO Ligure-ouest http://www.emso-fr.org/EMSO-France
Sensor Aquadopp, line 13 Serial AQD14315 
DOI : "https://doi.org/10.17882/74513; https://doi.org/10.17882/83244" 
Title:EMSO Ligure Ouest : Data ligne ALBATROSS capteur AQUADOPP - deploiement 2021
Id,Date,Profondeur,Latitude,Longitude,X_East,Y_North,Z_Up,Amplitude_X,Amplitude_Y,Amplitude_Z,Batterie,SoundSpeed,Heading,Pitch,Roll,Pressure,Temperature,Speed,Direction
, , m, degrees North, degrees East, m.s-1, m.s-1,m.s-1, 1, 1, 1, Volt, m.s-1, degree, degree, degree, dbar, degree_C, m.s-1, degree
11,2022-02-17T22:00:00,2200.0,42.79,6.0312,0.048,-0.001,-0.001,51.0,57.0,58.0,12.3,1504.2,80.0,-0.4,-0.2,2192.827,13.16,0.048,91.2
11,2022-02-17T22:30:00,2200.0,42.79,6.0312,0.049,-0.003,0.004,55.0,57.0,58.0,12.3,1504.2,74.2,-0.6,-0.1,2192.847,13.16,0.049,93.5
11,2022-02-17T23:00:00,2200.0,42.79,6.0312,0.031,-0.004,-0.002,53.0,57.0,58.0,12.3,1504.3,86.4,-0.4,-0.1,2192.789,13.17,0.031,97.3
11,2022-02-17T23:30:00,2200.0,42.79,6.0312,0.028,-0.015,0.009,52.0,56.0,58.0,12.3,1504.3,85.3,-0.1,-0.2,2192.757,13.17,0.031,118.2
11,2022-02-18T00:00:00,2200.0,42.79,6.0312,0.044,-0.012,0.022,53.0,56.0,57.0,12.3,1504.3,95.1,-0.3,0.1,2192.734,13.17,0.045,105.3
11,2022-02-18T00:30:00,2200.0,42.79,6.0312,0.019,-0.019,0.001,53.0,57.0,58.0,12.3,1504.3,90.3,-0.5,0.1,2192.761,13.17,0.026,135.0
11,2022-02-18T01:00:00,2200.0,42.79,6.0312,0.031,-0.008,0.008,51.0,56.0,57.0,12.3,1504.3,92.8,-0.4,-0.1,2192.758,13.17,0.032,104.5
11,2022-02-18T01:30:00,2200.0,42.79,6.0312,0.024,-0.01,-0.007,52.0,54.0,59.0,12.3,1504.3,95.6,-0.3,-0.1,2192.729,13.17,0.026,112.6
11,2022-02-18T02:00:00,2200.0,42.79,6.0312,0.014,-0.01,0.024,53.0,54.0,55.0,12.3,1504.3,104.5,-0.1,0.1,2192.721,13.17,0.017,125.5
11,2022-02-18T02:30:00,2200.0,42.79,6.0312,0.019,-0.011,-0.003,60.0,59.0,59.0,12.3,1504.3,107.3,0.0,0.0,2192.712,13.17,0.021,120.1
11,2022-02-18T03:00:00,2200.0,42.79,6.0312,0.018,0.009,0.004,52.0,54.0,58.0,12.3,1504.3,125.4,-0.4,-0.2,2192.712,13.17,0.02,63.4
11,2022-02-18T03:30:00,2200.0,42.79,6.0312,0.017,0.009,0.008,51.0,55.0,57.0,12.3,1504.3,147.9,-0.2,0.1,2192.746,13.17,0.019,62.1
11,2022-02-18T04:00:00,2200.0,42.79,6.0312,0.011,0.006,0.004,52.0,53.0,65.0,12.3,1504.3,165.8,-0.4,0.1,2192.738,13.17,0.012,61.4
11,2022-02-18T04:30:00,2200.0,42.79,6.0312,0.007,0.014,0.018,54.0,55.0,55.0,12.3,1504.2,185.0,-0.4,0.1,2192.749,13.16,0.015,26.6
11,2022-02-18T05:00:00,2200.0,42.79,6.0312,0.021,0.017,0.009,53.0,59.0,59.0,12.3,1504.2,192.2,-0.4,0.0,2192.833,13.16,0.027,51.0
11,2022-02-18T05:30:00,2200.0,42.79,6.0312,0.012,0.015,0.0,56.0,57.0,59.0,12.3,1504.2,188.4,-0.3,0.0,2192.822,13.16,0.019,38.7
11,2022-02-18T06:00:00,2200.0,42.79,6.0312,0.014,0.022,0.011,54.0,57.0,57.0,12.3,1504.2,200.2,-0.4,-0.2,2192.887,13.16,0.026,32.5
11,2022-02-18T06:30:00,2200.0,42.79,6.0312,0.027,0.024,0.009,53.0,56.0,59.0,12.3,1504.2,212.1,-0.3,-0.2,2192.905,13.16,0.036,48.4
11,2022-02-18T07:00:00,2200.0,42.79,6.0312,0.008,0.026,0.017,54.0,55.0,58.0,12.3,1504.2,214.5,-0.4,0.1,2192.958,13.16,0.027,17.1
11,2022-02-18T07:30:00,2200.0,42.79,6.0312,0.019,0.025,0.006,54.0,55.0,57.0,12.3,1504.2,229.1,0.0,0.0,2193.007,13.16,0.031,37.2
11,2022-02-18T08:00:00,2200.0,42.79,6.0312,0.024,0.036,-0.008,52.0,55.0,58.0,12.3,1504.2,232.7,-0.2,0.1,2193.006,13.16,0.043,33.7
11,2022-02-18T08:30:00,2200.0,42.79,6.0312,0.023,0.012,0.005,54.0,54.0,56.0,12.3,1504.2,249.0,-0.3,-0.2,2193.026,13.16,0.025,62.4
11,2022-02-18T09:00:00,2200.0,42.79,6.0312,0.04,0.01,0.025,52.0,58.0,58.0,12.3,1504.2,232.7,-0.3,0.0,2193.039,13.16,0.041,76.0
11,2022-02-18T09:30:00,2200.0,42.79,6.0312,0.038,0.023,0.011,54.0,56.0,59.0,12.3,1504.3,252.0,-0.1,-0.2,2192.991,13.17,0.044,58.8
11,2022-02-18T10:00:00,2200.0,42.79,6.0312,0.046,0.021,0.013,58.0,57.0,59.0,12.3,1504.3,244.6,-0.1,-0.1,2192.985,13.17,0.05,65.5
11,2022-02-18T10:30:00,2200.0,42.79,6.0312,0.044,0.015,-0.005,54.0,57.0,58.0,12.3,1504.3,252.1,0.1,0.0,2192.991,13.17,0.046,71.2
11,2022-02-18T11:00:00,2200.0,42.79,6.0312,0.047,0.007,0.016,54.0,57.0,59.0,12.3,1504.3,236.6,0.1,0.1,2192.96,13.17,0.047,81.5
11,2022-02-18T11:30:00,2200.0,42.79,6.0312,0.044,-0.009,0.006,55.0,57.0,58.0,12.3,1504.3,242.9,-0.2,0.1,2192.914,13.17,0.044,101.6
11,2022-02-18T12:00:00,2200.0,42.79,6.0312,0.046,-0.012,0.006,56.0,59.0,59.0,12.3,1504.3,231.1,-0.3,-0.2,2192.906,13.17,0.047,104.6
11,2022-02-18T12:30:00,2200.0,42.79,6.0312,0.041,-0.016,0.01,55.0,60.0,61.0,12.3,1504.3,253.5,0.1,0.0,2192.897,13.17,0.044,111.3
11,2022-02-18T13:00:00,2200.0,42.79,6.0312,0.045,-0.016,-0.003,56.0,60.0,60.0,12.3,1504.3,242.1,-0.2,-0.2,2192.87,13.17,0.047,109.6
11,2022-02-18T13:30:00,2200.0,42.79,6.0312,0.036,-0.015,0.019,55.0,58.0,59.0,12.3,1504.3,247.0,-0.3,-0.3,2192.84,13.17,0.039,112.6
11,2022-02-18T14:00:00,2200.0,42.79,6.0312,0.036,-0.028,0.013,57.0,58.0,62.0,12.3,1504.3,255.5,0.0,-0.1,2192.85,13.17,0.045,127.9
11,2022-02-18T14:30:00,2200.0,42.79,6.0312,0.038,-0.019,0.008,59.0,60.0,60.0,12.3,1504.3,250.5,-0.2,0.1,2192.796,13.17,0.042,116.6
11,2022-02-18T15:00:00,2200.0,42.79,6.0312,0.019,-0.019,0.007,58.0,62.0,62.0,12.3,1504.3,251.1,0.2,-0.2,2192.759,13.17,0.026,135.0
11,2022-02-18T15:30:00,2200.0,42.79,6.0312,0.016,-0.012,0.007,58.0,61.0,63.0,12.3,1504.3,249.5,0.0,0.1,2192.794,13.17,0.02,126.9
11,2022-02-18T16:30:00,2200.0,42.79,6.0312,0.007,-0.023,0.0,59.0,59.0,62.0,12.3,1504.3,246.9,0.0,0.1,2192.815,13.17,0.024,163.1
11,2022-02-18T17:00:00,2200.0,42.79,6.0312,0.004,0.0,-0.002,58.0,63.0,62.0,12.3,1504.3,248.7,-0.1,0.1,2192.764,13.17,0.004,90.0
11,2022-02-18T17:30:00,2200.0,42.79,6.0312,0.0,-0.021,0.006,59.0,62.0,63.0,12.3,1504.3,247.0,-0.2,-0.2,2192.835,13.17,0.021,180.0
11,2022-02-18T18:00:00,2200.0,42.79,6.0312,-0.012,-0.007,0.002,59.0,61.0,68.0,12.3,1504.3,256.1,0.1,0.1,2192.828,13.17,0.013,239.7
11,2022-02-18T18:30:00,2200.0,42.79,6.0312,-0.01,0.0,0.028,58.0,68.0,63.0,12.3,1504.3,257.0,-0.3,-0.2,2192.907,13.17,0.01,270.0
11,2022-02-18T19:00:00,2200.0,42.79,6.0312,-0.006,-0.001,0.003,59.0,59.0,61.0,12.3,1504.3,262.1,-0.3,-0.2,2192.895,13.17,0.006,260.5
11,2022-02-18T19:30:00,2200.0,42.79,6.0312,-0.003,0.0,0.007,58.0,63.0,60.0,12.3,1504.3,263.7,-0.3,-0.2,2192.956,13.17,0.003,270.0
11,2022-02-18T20:00:00,2200.0,42.79,6.0312,0.002,0.005,0.001,57.0,66.0,58.0,12.3,1504.3,266.6,-0.1,-0.2,2192.949,13.17,0.005,21.8
11,2022-02-18T20:30:00,2200.0,42.79,6.0312,-0.001,0.004,0.0,58.0,63.0,61.0,12.3,1504.3,270.8,-0.2,-0.2,2192.909,13.17,0.004,346.0
11,2022-02-18T21:00:00,2200.0,42.79,6.0312,0.003,0.02,0.007,57.0,62.0,62.0,12.3,1504.3,262.0,-0.3,0.1,2192.935,13.17,0.02,8.5
